Location: Camp Creek
(33.9000°N, 111.8167°W)
Time: 02:10:19
(UTC-07:00)

Cosmos 1656 - Visible Passes

Search period start: 27 April 2017 00:00
Search period end: 07 May 2017 00:00
Orbit: 799 x 848 km, 71.1° (Epoch: 25 April)

Date Brightness Start Highest point End Pass type
(mag) Time Alt. Az. Time Alt. Az. Time Alt. Az.
27 Apr 5.4 03:37:14 10° N 03:42:03 31° ENE 03:46:49 10° SE visible
28 Apr 5.7 03:17:01 10° N 03:21:33 27° ENE 03:26:04 10° ESE visible
28 Apr 4.2 05:00:21 10° NW 05:05:08 33° WSW 05:09:55 10° SSW visible
29 Apr 5.9 02:56:49 10° N 03:01:03 23° ENE 03:05:16 10° ESE visible
29 Apr 4.0 04:39:45 10° NW 04:44:45 39° WSW 04:49:46 10° S visible
30 Apr 6.0 02:36:41 10° NNE 02:40:32 19° ENE 02:44:22 10° ESE visible
30 Apr 3.8 04:19:12 10° NNW 04:24:22 47° WSW 04:29:33 10° S visible
01 May 6.2 02:16:37 10° NNE 02:20:00 16° ENE 02:23:21 10° E visible
01 May 3.6 03:58:40 10° NNW 04:03:58 57° WSW 04:09:17 10° S visible
02 May 6.3 01:56:41 10° NNE 01:59:27 14° NE 02:02:12 10° E visible
02 May 3.5 03:38:10 10° NNW 03:43:35 69° WSW 03:47:38 18° S visible
03 May 6.4 01:37:00 10° NNE 01:38:53 12° NE 01:40:46 10° ENE visible
03 May 3.4 03:17:43 10° NNW 03:23:10 82° WSW 03:24:47 47° S visible
04 May 3.5 02:57:18 10° NNW 03:02:44 84° ENE 03:03:03 78° SE visible
05 May 3.8 02:36:53 10° NNW 02:41:48 66° NNE 02:41:48 66° NNE visible
06 May 4.3 02:16:30 10° NNW 02:20:50 50° NNE 02:20:50 50° NNE visible
